| time (UTC) | temp F | wind direction | speed knots | gust knots | rain 1hr in | rain 24hr in | rain mn in | humidity % | barometer mb |
| 20260901104525 | 63 | 276 | 1.7 | 5.2 | 0.00 | 0.00 | 0.00 | 84 | 1003.0 |
| 20260901103625 | 63 | 213 | 1.7 | 6.1 | 0.00 | 0.00 | 0.00 | 84 | 1003.0 |
| 20260901102725 | 63 | 228 | 1.7 | 5.2 | 0.00 | 0.00 | 0.00 | 84 | 1003.0 |
| 20260901101804 | 63 | 193 | 2.6 | 6.1 | 0.00 | 0.01 | 0.00 | 84 | 1003.0 |
| 20260901100904 | 63 | 181 | 1.7 | 6.1 | 0.00 | 0.01 | 0.00 | 84 | 1002.9 |
| 20260901100004 | 63 | 194 | 1.7 | 4.3 | 0.00 | 0.01 | 0.00 | 84 | 1002.9 |
| 20260901095404 | 63 | 178 | 1.7 | 5.2 | 0.00 | 0.01 | 0.00 | 85 | 1002.9 |
| 20260901094504 | 63 | 203 | 3.5 | 9.6 | 0.00 | 0.01 | 0.00 | 84 | 1002.8 |
| 20260901093604 | 63 | 163 | 2.6 | 7.0 | 0.00 | 0.01 | 0.00 | 85 | 1002.8 |
| 20260901092704 | 62 | 174 | 2.6 | 5.2 | 0.00 | 0.01 | 0.00 | 86 | 1002.8 |
| 20260901091804 | 62 | 198 | 2.6 | 7.8 | 0.00 | 0.01 | 0.00 | 86 | 1002.8 |
| 20260901090904 | 62 | 186 | 2.6 | 6.1 | 0.00 | 0.01 | 0.00 | 88 | 1002.7 |
| 20260901090004 | 62 | 207 | 2.6 | 7.0 | 0.00 | 0.01 | 0.00 | 89 | 1002.7 |
| 20260901085404 | 61 | 229 | 1.7 | 6.1 | 0.00 | 0.01 | 0.00 | 89 | 1002.7 |
| 20260901084504 | 61 | 200 | 1.7 | 2.6 | 0.00 | 0.01 | 0.00 | 89 | 1002.7 |
| 20260901083625 | 61 | 227 | 0.9 | 3.5 | 0.00 | 0.01 | 0.00 | 89 | 1002.7 |
| 20260901082704 | 61 | 222 | 0.9 | 4.3 | 0.00 | 0.01 | 0.00 | 90 | 1002.7 |
| 20260901081804 | 61 | 191 | 0.9 | 3.5 | 0.00 | 0.01 | 0.00 | 90 | 1002.7 |
| 20260901080904 | 61 | 179 | 0.9 | 3.5 | 0.00 | 0.01 | 0.00 | 90 | 1002.7 |
| 20260901080004 | 61 | 180 | 1.7 | 3.5 | 0.00 | 0.01 | 0.00 | 90 | 1002.6 |
| 20260901075404 | 61 | 210 | 1.7 | 6.1 | 0.00 | 0.01 | 0.00 | 90 | 1002.5 |
| 20260901074504 | 61 | 209 | 1.7 | 6.1 | 0.00 | 0.01 | 0.00 | 90 | 1002.5 |
| 20260901073625 | 61 | 216 | 1.7 | 5.2 | 0.00 | 0.01 | 0.00 | 91 | 1002.6 |
| 20260901072704 | 61 | 207 | 2.6 | 6.1 | 0.00 | 0.01 | 0.00 | 91 | 1002.6 |
| 20260901071804 | 61 | 190 | 1.7 | 3.5 | 0.00 | 0.01 | 0.00 | 92 | 1002.5 |
| 20260901070904 | 61 | 200 | 1.7 | 4.3 | 0.00 | 0.01 | 0.00 | 92 | 1002.5 |
| 20260901070025 | 61 | 197 | 1.7 | 5.2 | 0.00 | 0.01 | 0.00 | 92 | 1002.4 |
| 20260901065404 | 61 | 200 | 1.7 | 5.2 | 0.00 | 0.01 | 0.00 | 92 | 1002.4 |
| 20260901064504 | 60 | 189 | 0.9 | 2.6 | 0.00 | 0.01 | 0.00 | 93 | 1002.4 |
| 20260901063604 | 60 | 183 | 0.9 | 4.3 | 0.00 | 0.01 | 0.00 | 94 | 1002.4 |
| 20260901062704 | 60 | 206 | 0.9 | 2.6 | 0.00 | 0.01 | 0.00 | 94 | 1002.4 |
| 20260901061804 | 60 | 238 | 0.9 | 2.6 | 0.00 | 0.01 | 0.00 | 94 | 1002.4 |
| 20260901060925 | 60 | 228 | 0.9 | 4.3 | 0.00 | 0.01 | 0.00 | 95 | 1002.3 |
| 20260901060004 | 60 | 200 | 0.9 | 4.3 | 0.00 | 0.01 | 0.00 | 95 | 1002.3 |
| 20260901055404 | 60 | 188 | 0.9 | 3.5 | 0.00 | 0.01 | 0.00 | 95 | 1002.3 |
| 20260901054504 | 59 | 192 | 0.9 | 2.6 | 0.00 | 0.01 | 0.00 | 96 | 1002.3 |
| 20260901053625 | 59 | 192 | 0.0 | 2.6 | 0.00 | 0.01 | 0.00 | 96 | 1002.1 |
| 20260901052704 | 59 | 208 | 0.9 | 3.5 | 0.00 | 0.01 | 0.00 | 96 | 1002.1 |
| 20260901051804 | 59 | 186 | 0.9 | 4.3 | 0.00 | 0.01 | 0.00 | 96 | 1002.1 |
| 20260901050904 | 59 | 275 | 0.9 | 3.5 | 0.00 | 0.01 | 0.00 | 96 | 1002.0 |
| 20260901050025 | 59 | 287 | 0.9 | 4.3 | 0.00 | 0.01 | 0.00 | 96 | 1002.0 |
| 20260901045404 | 59 | 284 | 0.9 | 3.5 | 0.00 | 0.01 | 0.00 | 96 | 1002.0 |
| 20260901044506 | 59 | 204 | 0.0 | 3.5 | 0.00 | 0.01 | 0.00 | 97 | 1001.9 |
| 20260901043604 | 59 | 191 | 0.0 | 1.7 | 0.00 | 0.01 | 0.00 | 97 | 1001.8 |
| 20260901042704 | 59 | 191 | 0.9 | 3.5 | 0.00 | 0.01 | 0.00 | 97 | 1002.0 |
| 20260901041804 | 59 | 189 | 0.9 | 3.5 | 0.00 | 0.01 | 0.00 | 97 | 1002.0 |
| 20260901040904 | 59 | 199 | 0.9 | 3.5 | 0.00 | 0.01 | 0.00 | 96 | 1001.9 |
| 20260901040004 | 59 | 242 | 0.9 | 2.6 | 0.00 | 0.01 | 0.00 | 97 | 1002.0 |
| 20260901035404 | 59 | 267 | 0.0 | 1.7 | 0.00 | 0.01 | 0.00 | 96 | 1002.0 |
| 20260901034504 | 59 | 279 | 0.9 | 3.5 | 0.00 | 0.01 | 0.00 | 97 | 1002.0 |
| 20260901033604 | 59 | 283 | 0.9 | 3.5 | 0.00 | 0.01 | 0.00 | 97 | 1002.0 |
| 20260901032704 | 59 | 293 | 0.9 | 3.5 | 0.00 | 0.01 | 0.00 | 97 | 1002.0 |
| 20260901031804 | 59 | 166 | 0.9 | 3.5 | 0.00 | 0.01 | 0.00 | 97 | 1002.1 |
| 20260901030904 | 59 | 155 | 0.9 | 4.3 | 0.00 | 0.01 | 0.00 | 97 | 1002.0 |
| 20260901030004 | 59 | 155 | 0.0 | 2.6 | 0.00 | 0.01 | 0.00 | 97 | 1002.0 |
| 20260901025404 | 59 | 155 | 0.0 | 1.7 | 0.00 | 0.01 | 0.00 | 97 | 1002.0 |
| 20260901024504 | 59 | 155 | 0.9 | 1.7 | 0.00 | 0.01 | 0.00 | 96 | 1002.0 |
| 20260901023604 | 59 | 155 | 0.9 | 2.6 | 0.00 | 0.01 | 0.00 | 97 | 1001.9 |
| 20260901022704 | 59 | 155 | 0.0 | 1.7 | 0.00 | 0.01 | 0.00 | 97 | 1001.8 |
| 20260901021804 | 59 | 155 | 0.9 | 5.2 | 0.00 | 0.01 | 0.00 | 97 | 1001.8 |
| 20260901020925 | 59 | 155 | 0.0 | 2.6 | 0.00 | 0.01 | 0.00 | 96 | 1001.8 |
| 20260901020004 | 59 | 155 | 0.0 | 2.6 | 0.00 | 0.01 | 0.00 | 96 | 1001.8 |
| 20260901015404 | 59 | 155 | 0.9 | 4.3 | 0.00 | 0.01 | 0.00 | 96 | 1001.8 |
| 20260901014504 | 59 | 155 | 1.7 | 4.3 | 0.00 | 0.01 | 0.00 | 96 | 1001.8 |
| 20260901013604 | 59 | 155 | 0.9 | 2.6 | 0.00 | 0.01 | 0.00 | 96 | 1001.8 |
| 20260901012704 | 59 | 155 | 1.7 | 2.6 | 0.00 | 0.01 | 0.00 | 96 | 1001.8 |
| 20260901011804 | 59 | 155 | 0.9 | 2.6 | 0.00 | 0.01 | 0.00 | 96 | 1001.8 |
| 20260901010904 | 59 | 155 | 0.9 | 1.7 | 0.00 | 0.01 | 0.00 | 96 | 1001.8 |
| 20260901010004 | 59 | 155 | 0.9 | 2.6 | 0.00 | 0.01 | 0.00 | 96 | 1001.9 |
| 20260901005404 | 59 | 155 | 0.9 | 1.7 | 0.00 | 0.01 | 0.00 | 96 | 1001.9 |
| 20260901004504 | 59 | 155 | 1.7 | 4.3 | 0.00 | 0.01 | 0.00 | 96 | 1001.9 |
| 20260901003604 | 59 | 155 | 1.7 | 5.2 | 0.00 | 0.02 | 0.00 | 96 | 1002.0 |
| 20260901002704 | 59 | 153 | 1.7 | 5.2 | 0.00 | 0.02 | 0.00 | 96 | 1002.0 |
| 20260901001804 | 59 | 152 | 1.7 | 4.3 | 0.00 | 0.02 | 0.00 | 96 | 1002.0 |
| 20260901000904 | 59 | 151 | 1.7 | 4.3 | 0.00 | 0.02 | 0.00 | 96 | 1002.1 |
| 20260901000004 | 59 | 150 | 0.9 | 3.5 | 0.00 | 0.02 | 0.00 | 96 | 1002.1 |
| 20260831235404 | 59 | 150 | 0.9 | 1.7 | 0.00 | 0.02 | 0.00 | 96 | 1002.1 |
| 20260831234504 | 59 | 150 | 0.9 | 2.6 | 0.00 | 0.02 | 0.00 | 96 | 1002.2 |
| 20260831233604 | 59 | 150 | 0.9 | 2.6 | 0.00 | 0.02 | 0.00 | 96 | 1002.2 |
| 20260831232705 | 59 | 150 | 0.9 | 2.6 | 0.00 | 0.02 | 0.00 | 96 | 1002.1 |
| 20260831231804 | 59 | 149 | 0.0 | 0.9 | 0.00 | 0.02 | 0.00 | 96 | 1002.2 |
| 20260831230904 | 59 | 149 | 0.0 | 0.9 | 0.00 | 0.02 | 0.00 | 96 | 1002.2 |
| 20260831230004 | 59 | 143 | 0.9 | 2.6 | 0.00 | 0.02 | 0.00 | 96 | 1002.2 |
| 20260831225404 | 59 | 133 | 0.9 | 2.6 | 0.00 | 0.02 | 0.00 | 96 | 1002.2 |
| 20260831224504 | 59 | 129 | 0.9 | 2.6 | 0.00 | 0.02 | 0.00 | 96 | 1002.2 |
| 20260831223604 | 59 | 129 | 0.9 | 1.7 | 0.00 | 0.02 | 0.00 | 96 | 1002.3 |
| 20260831222704 | 59 | 129 | 0.9 | 1.7 | 0.00 | 0.02 | 0.00 | 96 | 1002.2 |
| 20260831221804 | 59 | 144 | 0.9 | 2.6 | 0.00 | 0.02 | 0.00 | 96 | 1002.3 |
| 20260831220925 | 59 | 149 | 0.9 | 2.6 | 0.00 | 0.02 | 0.00 | 96 | 1002.3 |
| 20260831220004 | 58 | 149 | 1.7 | 2.6 | 0.00 | 0.02 | 0.00 | 96 | 1002.4 |
| 20260831215425 | 58 | 149 | 0.9 | 1.7 | 0.00 | 0.02 | 0.00 | 95 | 1002.4 |
| 20260831214504 | 58 | 149 | 0.9 | 1.7 | 0.00 | 0.02 | 0.00 | 95 | 1002.3 |
| 20260831213604 | 59 | 149 | 0.9 | 1.7 | 0.00 | 0.02 | 0.00 | 95 | 1002.3 |
| 20260831212704 | 59 | 149 | 0.0 | 1.7 | 0.00 | 0.02 | 0.00 | 95 | 1002.3 |
| 20260831211804 | 60 | 149 | 0.9 | 1.7 | 0.00 | 0.02 | 0.00 | 95 | 1002.3 |
| 20260831210904 | 60 | 149 | 0.9 | 1.7 | 0.00 | 0.02 | 0.00 | 95 | 1002.3 |
| 20260831210026 | 60 | 149 | 0.9 | 1.7 | 0.00 | 0.02 | 0.00 | 95 | 1002.4 |
| 20260831205404 | 60 | 149 | 0.9 | 2.6 | 0.00 | 0.02 | 0.02 | 95 | 1002.4 |
| 20260831204504 | 60 | 128 | 1.7 | 4.3 | 0.00 | 0.02 | 0.02 | 96 | 1002.4 |
| 20260831203604 | 60 | 135 | 1.7 | 3.5 | 0.00 | 0.02 | 0.02 | 96 | 1002.5 |
| 20260831202704 | 60 | 152 | 1.7 | 4.3 | 0.00 | 0.02 | 0.02 | 96 | 1002.4 |
| 20260831201804 | 61 | 139 | 1.7 | 3.5 | 0.00 | 0.02 | 0.02 | 96 | 1002.5 |
| 20260831200904 | 61 | 120 | 0.9 | 2.6 | 0.00 | 0.02 | 0.02 | 95 | 1002.4 |
| 20260831200004 | 61 | 123 | 1.7 | 2.6 | 0.00 | 0.02 | 0.02 | 95 | 1002.4 |
| 20260831195404 | 61 | 118 | 0.9 | 2.6 | 0.00 | 0.02 | 0.02 | 95 | 1002.4 |
| 20260831194504 | 61 | 121 | 0.9 | 2.6 | 0.00 | 0.02 | 0.02 | 95 | 1002.4 |
| 20260831193604 | 61 | 121 | 0.9 | 2.6 | 0.00 | 0.02 | 0.02 | 95 | 1002.5 |
| 20260831192704 | 61 | 103 | 0.9 | 2.6 | 0.00 | 0.03 | 0.02 | 95 | 1002.4 |
| 20260831191825 | 61 | 105 | 0.9 | 2.6 | 0.00 | 0.07 | 0.02 | 95 | 1002.5 |
| 20260831190904 | 61 | 105 | 0.9 | 2.6 | 0.00 | 0.08 | 0.02 | 95 | 1002.5 |
| 20260831190025 | 61 | 105 | 0.9 | 2.6 | 0.00 | 0.12 | 0.02 | 95 | 1002.4 |
| 20260831185404 | 61 | 105 | 0.9 | 2.6 | 0.00 | 0.13 | 0.02 | 95 | 1002.4 |
| 20260831184504 | 61 | 107 | 1.7 | 3.5 | 0.00 | 0.16 | 0.02 | 95 | 1002.4 |
| 20260831183604 | 60 | 124 | 0.9 | 3.5 | 0.00 | 0.17 | 0.02 | 95 | 1002.4 |
| 20260831182704 | 61 | 113 | 0.9 | 2.6 | 0.00 | 0.18 | 0.02 | 95 | 1002.3 |
| 20260831181804 | 61 | 128 | 0.9 | 2.6 | 0.00 | 0.18 | 0.02 | 94 | 1002.3 |
| 20260831180904 | 61 | 129 | 0.9 | 2.6 | 0.00 | 0.18 | 0.02 | 94 | 1002.4 |
| 20260831180004 | 61 | 119 | 1.7 | 2.6 | 0.00 | 0.18 | 0.02 | 94 | 1002.4 |
| 20260831175404 | 61 | 106 | 1.7 | 3.5 | 0.00 | 0.18 | 0.02 | 94 | 1002.4 |
| 20260831174504 | 61 | 120 | 1.7 | 5.2 | 0.00 | 0.18 | 0.02 | 94 | 1002.3 |
| 20260831173604 | 61 | 123 | 1.7 | 5.2 | 0.00 | 0.18 | 0.02 | 94 | 1002.4 |
| 20260831172704 | 61 | 124 | 2.6 | 6.1 | 0.00 | 0.18 | 0.02 | 94 | 1002.5 |
| 20260831171804 | 62 | 126 | 2.6 | 5.2 | 0.00 | 0.18 | 0.02 | 94 | 1002.5 |
| 20260831170904 | 62 | 124 | 2.6 | 5.2 | 0.00 | 0.18 | 0.02 | 93 | 1002.4 |
| 20260831170004 | 62 | 119 | 1.7 | 5.2 | 0.00 | 0.18 | 0.02 | 93 | 1002.5 |
| 20260831165404 | 62 | 127 | 1.7 | 4.3 | 0.00 | 0.18 | 0.02 | 93 | 1002.5 |
| 20260831164504 | 62 | 124 | 2.6 | 5.2 | 0.00 | 0.18 | 0.02 | 93 | 1002.4 |
| 20260831163625 | 62 | 129 | 1.7 | 5.2 | 0.00 | 0.18 | 0.02 | 93 | 1002.4 |
| 20260831162704 | 62 | 143 | 1.7 | 3.5 | 0.00 | 0.18 | 0.02 | 92 | 1002.4 |
| 20260831161804 | 62 | 120 | 2.6 | 6.1 | 0.00 | 0.18 | 0.02 | 92 | 1002.4 |
| 20260831160904 | 62 | 111 | 2.6 | 7.0 | 0.00 | 0.18 | 0.02 | 93 | 1002.5 |
| 20260831160004 | 62 | 118 | 2.6 | 5.2 | 0.00 | 0.18 | 0.02 | 93 | 1002.5 |
| 20260831155404 | 62 | 122 | 1.7 | 4.3 | 0.00 | 0.18 | 0.02 | 92 | 1002.6 |
| 20260831154504 | 62 | 120 | 2.6 | 5.2 | 0.00 | 0.18 | 0.02 | 92 | 1002.6 |
| 20260831153604 | 62 | 124 | 1.7 | 5.2 | 0.00 | 0.18 | 0.02 | 92 | 1002.6 |
| 20260831152725 | 62 | 128 | 1.7 | 5.2 | 0.00 | 0.18 | 0.02 | 92 | 1002.6 |
| 20260831151804 | 62 | 144 | 3.5 | 6.1 | 0.00 | 0.18 | 0.02 | 92 | 1002.6 |
| 20260831150904 | 62 | 139 | 3.5 | 7.0 | 0.00 | 0.18 | 0.02 | 91 | 1002.7 |
| 20260831150025 | 63 | 133 | 3.5 | 7.0 | 0.00 | 0.18 | 0.02 | 91 | 1002.7 |
| 20260831145425 | 63 | 130 | 3.5 | 9.6 | 0.00 | 0.18 | 0.02 | 91 | 1002.7 |
| 20260831144525 | 63 | 143 | 2.6 | 7.8 | 0.00 | 0.18 | 0.02 | 91 | 1002.7 |
| 20260831143604 | 63 | 142 | 1.7 | 4.3 | 0.00 | 0.18 | 0.02 | 92 | 1002.8 |
| 20260831142704 | 63 | 150 | 2.6 | 7.0 | 0.00 | 0.18 | 0.02 | 92 | 1002.8 |
| 20260831141804 | 63 | 135 | 2.6 | 5.2 | 0.00 | 0.18 | 0.02 | 92 | 1002.8 |
| 20260831140904 | 63 | 117 | 2.6 | 6.1 | 0.00 | 0.18 | 0.02 | 92 | 1002.8 |
| 20260831140004 | 62 | 138 | 1.7 | 4.3 | 0.00 | 0.18 | 0.02 | 93 | 1002.8 |
| 20260831135404 | 62 | 153 | 2.6 | 4.3 | 0.00 | 0.18 | 0.02 | 93 | 1002.9 |
| 20260831134504 | 62 | 159 | 1.7 | 3.5 | 0.00 | 0.18 | 0.02 | 93 | 1002.9 |
| 20260831133604 | 62 | 158 | 2.6 | 6.1 | 0.00 | 0.18 | 0.02 | 93 | 1002.9 |
| 20260831132725 | 62 | 144 | 4.3 | 7.8 | 0.00 | 0.18 | 0.02 | 93 | 1002.9 |
| 20260831131804 | 62 | 150 | 3.5 | 7.8 | 0.00 | 0.18 | 0.02 | 93 | 1003.0 |
| 20260831130904 | 62 | 142 | 2.6 | 6.1 | 0.00 | 0.18 | 0.02 | 94 | 1003.0 |
| 20260831130004 | 62 | 134 | 2.6 | 6.1 | 0.00 | 0.18 | 0.02 | 94 | 1003.1 |
| 20260831125404 | 62 | 132 | 2.6 | 6.1 | 0.00 | 0.18 | 0.02 | 95 | 1003.1 |
| 20260831124504 | 61 | 127 | 1.7 | 5.2 | 0.00 | 0.18 | 0.02 | 95 | 1003.2 |
| 20260831123604 | 61 | 131 | 2.6 | 6.1 | 0.00 | 0.18 | 0.02 | 95 | 1003.2 |
| 20260831122704 | 61 | 135 | 2.6 | 5.2 | 0.00 | 0.18 | 0.02 | 95 | 1003.2 |
| 20260831121804 | 61 | 142 | 2.6 | 5.2 | 0.00 | 0.18 | 0.02 | 95 | 1003.3 |
| 20260831120904 | 61 | 130 | 2.6 | 5.2 | 0.00 | 0.18 | 0.02 | 95 | 1003.2 |
| 20260831120004 | 60 | 123 | 2.6 | 6.1 | 0.00 | 0.18 | 0.02 | 94 | 1003.2 |
| 20260831115425 | 61 | 125 | 2.6 | 6.1 | 0.00 | 0.18 | 0.02 | 94 | 1003.3 |
| 20260831114504 | 61 | 127 | 1.7 | 3.5 | 0.00 | 0.18 | 0.02 | 95 | 1003.3 |
| 20260831113604 | 60 | 126 | 2.6 | 4.3 | 0.00 | 0.18 | 0.02 | 94 | 1003.4 |
| 20260831112725 | 60 | 132 | 2.6 | 7.0 | 0.00 | 0.18 | 0.02 | 94 | 1003.4 |
| 20260831111825 | 60 | 130 | 3.5 | 7.0 | 0.01 | 0.18 | 0.02 | 94 | 1003.4 |
| 20260831110904 | 60 | 132 | 3.5 | 7.0 | 0.01 | 0.18 | 0.02 | 94 | 1003.4 |
| 20260831110004 | 60 | 131 | 4.3 | 7.8 | 0.01 | 0.18 | 0.02 | 94 | 1003.4 |
| 20260831105404 | 60 | 129 | 3.5 | 7.0 | 0.01 | 0.18 | 0.02 | 94 | 1003.5 |